Date,TemperatureHighF,TemperatureAvgF,TemperatureLowF,DewpointHighF,DewpointAvgF,DewpointLowF,HumidityHigh,HumidityAvg,HumidityLow,PressureMaxIn,PressureMinIn,WindSpeedMaxMPH,WindSpeedAvgMPH,GustSpeedMaxMPH,PrecipitationSumIn
2013-9-1,90.4,68.4,50.6,48.4,42.6,38.2,69,42,22,29.76,29.63,9,2,11,0.00
2013-9-2,80.4,71.3,62.2,52.6,44.8,35.6,52,39,29,29.64,29.52,12,4,16,0.00
2013-9-3,92.0,75.8,68.4,52.1,49.6,45.5,56,41,24,29.69,29.58,17,7,22,0.01
2013-9-4,86.7,70.0,62.2,61.1,55.0,51.1,79,61,33,29.74,29.65,16,4,23,0.25
2013-9-5,90.2,74.3,64.5,58.8,53.9,50.8,66,50,31,29.74,29.58,9,2,13,0.00
2013-9-6,88.8,72.2,60.1,58.1,50.4,44.2,70,49,25,29.68,29.57,19,5,26,0.00
2013-9-7,82.7,73.3,59.8,55.9,51.2,45.6,75,47,33,29.65,29.54,13,5,19,0.00
2013-9-8,77.4,62.2,55.8,58.0,51.1,45.4,83,68,47,29.67,29.52,15,2,17,0.08
2013-9-9,74.4,62.4,52.4,48.8,42.5,39.5,69,50,30,29.76,29.59,15,6,24,0.00
2013-9-10,81.5,64.3,50.2,46.8,42.3,38.1,66,47,28,29.84,29.74,4,2,7,0.00
2013-9-11,81.8,66.2,52.8,47.3,44.2,41.2,68,47,28,29.96,29.82,5,1,8,0.00
2013-9-12,79.2,64.3,51.4,49.6,45.8,42.8,74,53,33,29.96,29.73,5,1,7,0.00
2013-9-13,73.5,63.4,52.9,51.9,46.6,42.5,82,55,41,29.73,29.49,13,2,15,0.05
2013-9-14,65.5,57.8,54.5,58.1,52.9,48.8,92,84,70,29.85,29.57,8,2,13,1.18
2013-9-15,60.7,55.5,51.3,55.3,51.4,48.8,92,86,78,29.91,29.74,3,1,6,0.10
2013-9-16,80.3,66.8,51.7,51.3,49.0,47.0,90,56,32,29.74,29.48,17,7,23,0.01
2013-9-17,71.2,61.1,52.0,53.7,46.3,39.2,82,60,33,29.53,29.31,31,6,31,0.49
2013-9-18,59.0,53.3,45.2,44.8,37.9,31.9,79,57,43,29.75,29.33,43,11,43,0.17
2013-9-19,62.2,53.1,44.8,38.2,33.3,29.5,66,48,34,29.92,29.75,23,5,23,0.00
2013-9-20,74.3,57.6,42.8,40.7,32.4,25.2,69,41,19,29.88,29.53,29,4,29,0.00
2013-9-21,78.7,69.4,54.8,39.1,34.9,28.3,43,28,23,29.54,29.22,30,8,30,0.00
2013-9-22,72.9,61.3,52.6,43.9,38.2,32.2,58,43,28,29.34,29.17,16,2,16,0.00
2013-9-23,63.4,56.9,49.9,39.6,33.6,31.0,67,42,31,29.64,29.33,34,11,34,0.00
2013-9-24,67.6,58.4,50.2,41.6,37.2,32.5,66,46,32,29.67,29.37,29,10,29,0.06
2013-9-25,57.4,45.7,39.8,39.5,36.9,34.3,90,72,43,29.50,29.33,17,2,17,0.28
2013-9-26,46.7,37.3,33.5,39.1,33.3,30.5,90,85,70,29.90,29.48,8,1,8,0.11
2013-9-27,48.9,39.6,32.1,35.4,28.9,21.8,90,69,40,29.90,29.78,24,4,24,0.20
2013-9-28,54.6,49.1,44.2,34.3,31.0,24.6,58,50,45,29.79,29.58,47,19,47,0.00
2013-9-29,56.2,54.4,52.0,38.9,35.2,29.9,57,48,39,29.61,29.33,56,21,56,0.00
2013-9-30,57.5,49.5,41.9,41.7,37.0,26.4,86,62,45,29.67,29.23,34,11,48,0.29